Location: Unspecified
(0.0000°N, 0.0000°E)
Time: 18:18:09
(UTC+00:00)

Hubble Space Telescope - Visible Passes

Search period start: 26 May 2022 00:00
Search period end: 05 June 2022 00:00
Orbit: 533 x 536 km, 28.5° (Epoch: 25 May)

Date Brightness Start Highest point End Pass type
(mag) Time Alt. Az. Time Alt. Az. Time Alt. Az.
26 May 3.9 03:29:46 11° ESE 03:29:46 11° ESE 03:29:56 10° ESE visible
26 May 0.9 05:05:03 18° WSW 05:07:57 64° NNW 05:12:02 10° NE visible
27 May 1.4 04:54:03 24° W 04:56:09 44° NNW 05:00:06 10° NE visible
28 May 1.9 04:43:01 26° WNW 04:44:21 32° NNW 04:48:03 10° NE visible
29 May 2.3 04:31:57 23° NW 04:32:33 24° NNW 04:35:53 10° NNE visible
30 May 2.7 04:20:49 18° NNW 04:20:49 18° NNW 04:23:36 10° NNE visible
31 May 3.2 04:09:39 13° NNW 04:09:39 13° NNW 04:11:02 10° N visible
